AAL7760 KPHL-LGAV

Flight info

Callsign AAL7760
Flight time N/A
Altitude 39000
Route DITCH T416 JIMEE DCT WAVEY DCT SHLEP DCT YAHOO DCT KANNI N343B JOOPY/M081F390 DCT 49N050W 51N040W 52N030W 52N020W DCT DINIM DCT ELSOX DCT TAKAS/N0465F390 DCT ALUTA DCT KORER DCT LEMKA DCT BEBIX DCT VALKU DCT TIS DCT MEBAK DCT GIPNO DCT BALSI DCT OBIGO DCT ROBEX DCT LAPRI DCT MOGBO DCT BAR DCT FASAN DCT KAPPO DCT NOSTO UN7 NEMES
Aircraft A333/H-SDE3GHIJ2J3J5M1RVWXY/LB2D1

Departure

Time 2026-05-07 17:25
Airport Philadelphia International Airport (KPHL)

Arrival

Time N/A
Airport Athens Eleftherios Venizelos International Airport (LGAV)
Time Latitude Longitude Altitude Speed Heading
2026-05-07 17:02 39.87405 -75.25051 29 ft 0 kts 334°
2026-05-07 17:10 39.87393 -75.25043 28 ft 3 kts 334°
2026-05-07 17:10 39.87376 -75.25033 28 ft 3 kts 334°
2026-05-07 17:10 39.87359 -75.25020 26 ft 3 kts 303°
2026-05-07 17:10 39.87353 -75.24996 26 ft 3 kts 255°
2026-05-07 17:11 39.87354 -75.24987 25 ft 0 kts 243°
2026-05-07 17:14 39.87349 -75.24993 26 ft 3 kts 226°
2026-05-07 17:14 39.87322 -75.25006 29 ft 4 kts 188°
2026-05-07 17:14 39.87309 -75.25002 29 ft 2 kts 169°
2026-05-07 17:15 39.87286 -75.24994 29 ft 5 kts 165°
2026-05-07 17:15 39.87248 -75.24981 29 ft 6 kts 165°
2026-05-07 17:15 39.87207 -75.24967 29 ft 6 kts 165°
2026-05-07 17:15 39.87169 -75.24954 29 ft 5 kts 165°
2026-05-07 17:16 39.87136 -75.24938 29 ft 5 kts 150°
2026-05-07 17:16 39.87122 -75.24911 29 ft 2 kts 107°
2026-05-07 17:16 39.87122 -75.24898 29 ft 1 kts 89°
2026-05-07 17:16 39.87123 -75.24883 29 ft 2 kts 88°
2026-05-07 17:17 39.87123 -75.24871 29 ft 1 kts 89°
2026-05-07 17:17 39.87123 -75.24862 29 ft 1 kts 86°
2026-05-07 17:17 39.87128 -75.24841 29 ft 5 kts 77°
2026-05-07 17:17 39.87136 -75.24795 29 ft 5 kts 79°
2026-05-07 17:18 39.87146 -75.24747 29 ft 8 kts 76°
2026-05-07 17:18 39.87163 -75.24663 29 ft 10 kts 74°
2026-05-07 17:18 39.87180 -75.24577 29 ft 9 kts 75°
2026-05-07 17:18 39.87196 -75.24500 29 ft 9 kts 75°
2026-05-07 17:19 39.87213 -75.24418 29 ft 10 kts 76°
2026-05-07 17:19 39.87231 -75.24326 29 ft 11 kts 76°
2026-05-07 17:19 39.87251 -75.24224 29 ft 11 kts 76°
2026-05-07 17:19 39.87231 -75.24157 29 ft 8 kts 139°
2026-05-07 17:20 39.87169 -75.24112 29 ft 11 kts 157°
2026-05-07 17:20 39.87101 -75.24082 29 ft 10 kts 165°
2026-05-07 17:20 39.87038 -75.24061 29 ft 9 kts 166°
2026-05-07 17:20 39.86979 -75.24041 29 ft 9 kts 164°
2026-05-07 17:21 39.86924 -75.24016 29 ft 8 kts 147°
2026-05-07 17:21 39.86908 -75.23955 29 ft 7 kts 82°
2026-05-07 17:21 39.86921 -75.23887 29 ft 8 kts 75°
2026-05-07 17:21 39.86938 -75.23802 29 ft 11 kts 76°
2026-05-07 17:22 39.86957 -75.23700 29 ft 12 kts 76°
2026-05-07 17:22 39.86979 -75.23597 29 ft 11 kts 75°
2026-05-07 17:22 39.86998 -75.23501 29 ft 11 kts 75°
2026-05-07 17:22 39.86988 -75.23433 29 ft 6 kts 142°
2026-05-07 17:23 39.86952 -75.23410 29 ft 6 kts 161°
2026-05-07 17:23 39.86917 -75.23406 29 ft 4 kts 188°
2026-05-07 17:23 39.86902 -75.23425 29 ft 4 kts 236°
2026-05-07 17:23 39.86888 -75.23480 29 ft 12 kts 254°
2026-05-07 17:24 39.86822 -75.23810 29 ft 66 kts 256°
2026-05-07 17:24 39.86663 -75.24630 29 ft 120 kts 256°
2026-05-07 17:24 39.86412 -75.25890 29 ft 168 kts 255°
2026-05-07 17:24 39.86106 -75.27463 429 ft 184 kts 258°
2026-05-07 17:25 39.85787 -75.29152 570 ft 201 kts 258°
2026-05-07 17:25 39.85430 -75.30976 626 ft 217 kts 254°
2026-05-07 17:25 39.84594 -75.32697 635 ft 236 kts 227°
2026-05-07 17:25 39.83309 -75.34114 652 ft 248 kts 218°
2026-05-07 17:26 39.81894 -75.35496 655 ft 260 kts 218°
2026-05-07 17:26 39.80468 -75.36872 1062 ft 254 kts 218°
2026-05-07 17:26 39.78963 -75.38016 1542 ft 250 kts 201°
2026-05-07 17:26 39.77266 -75.38422 2003 ft 251 kts 177°
2026-05-07 17:27 39.75589 -75.37801 2433 ft 257 kts 148°
2026-05-07 17:27 39.74350 -75.36097 2642 ft 267 kts 113°
2026-05-07 17:27 39.73966 -75.33753 3058 ft 268 kts 92°
2026-05-07 17:27 39.74000 -75.31327 3561 ft 270 kts 84°
2026-05-07 17:28 39.74224 -75.28895 4064 ft 273 kts 79°
2026-05-07 17:28 39.74523 -75.26445 4553 ft 277 kts 78°
2026-05-07 17:28 39.74832 -75.23967 4917 ft 280 kts 78°
2026-05-07 17:28 39.75124 -75.21451 5110 ft 284 kts 79°
2026-05-07 17:29 39.75391 -75.18878 5497 ft 291 kts 80°
2026-05-07 17:29 39.75642 -75.16236 5923 ft 298 kts 81°
2026-05-07 17:29 39.75883 -75.13527 6353 ft 305 kts 81°
2026-05-07 17:29 39.76120 -75.10756 6794 ft 311 kts 82°
2026-05-07 17:30 39.76356 -75.07935 7244 ft 316 kts 83°
2026-05-07 17:30 39.76595 -75.05068 7682 ft 322 kts 83°
2026-05-07 17:30 39.76840 -75.02139 8109 ft 329 kts 84°
2026-05-07 17:30 39.77090 -74.99156 8578 ft 334 kts 85°
2026-05-07 17:31 39.77344 -74.96137 9092 ft 338 kts 85°
2026-05-07 17:31 39.77601 -74.93085 9575 ft 342 kts 86°
2026-05-07 17:31 39.77861 -74.89984 10006 ft 347 kts 86°
2026-05-07 17:31 39.78125 -74.86819 10273 ft 358 kts 86°
2026-05-07 17:32 39.78397 -74.83538 10461 ft 371 kts 86°
2026-05-07 17:32 39.78582 -74.81305 10582 ft 380 kts 86°
2026-05-07 17:32 39.78870 -74.77830 10756 ft 393 kts 86°
2026-05-07 17:32 39.79167 -74.74241 10942 ft 405 kts 86°
2026-05-07 17:33 39.79473 -74.70545 11164 ft 416 kts 86°
2026-05-07 17:33 39.79788 -74.66770 11579 ft 423 kts 86°
2026-05-07 17:33 39.80106 -74.62955 12083 ft 426 kts 86°
2026-05-07 17:33 39.80428 -74.59103 12589 ft 430 kts 86°
2026-05-07 17:34 39.80750 -74.55219 13036 ft 433 kts 86°
2026-05-07 17:34 39.81072 -74.51308 13502 ft 436 kts 86°
2026-05-07 17:34 39.81394 -74.47376 13935 ft 439 kts 86°
2026-05-07 17:34 39.81643 -74.43395 14263 ft 444 kts 91°
2026-05-07 17:35 39.81735 -74.39364 14593 ft 448 kts 92°
2026-05-07 17:35 39.81770 -74.35288 14917 ft 453 kts 93°
2026-05-07 17:35 39.81770 -74.31175 15250 ft 458 kts 94°
2026-05-07 17:35 39.81755 -74.27014 15578 ft 462 kts 94°
2026-05-07 17:36 39.81734 -74.22811 15886 ft 467 kts 94°
2026-05-07 17:36 39.81926 -74.18563 16227 ft 476 kts 83°
2026-05-07 17:36 39.82810 -74.14401 16588 ft 481 kts 66°
2026-05-07 17:36 39.84363 -74.10536 16922 ft 483 kts 57°
2026-05-07 17:37 39.86185 -74.06850 17239 ft 486 kts 52°
2026-05-07 17:37 39.88133 -74.03305 17573 ft 489 kts 50°
2026-05-07 17:37 39.90174 -73.99746 17912 ft 493 kts 49°
2026-05-07 17:37 39.92246 -73.96159 18208 ft 498 kts 49°
2026-05-07 17:38 39.94327 -73.92524 18493 ft 502 kts 50°
2026-05-07 17:38 39.96405 -73.88843 18795 ft 506 kts 50°
2026-05-07 17:38 39.98482 -73.85120 19103 ft 509 kts 51°
2026-05-07 17:38 40.00555 -73.81371 19457 ft 511 kts 51°
2026-05-07 17:39 40.02635 -73.77589 19775 ft 514 kts 51°
2026-05-07 17:39 40.04723 -73.73784 20034 ft 517 kts 51°
2026-05-07 17:39 40.06821 -73.69955 20297 ft 521 kts 51°
2026-05-07 17:39 40.08934 -73.66097 20557 ft 524 kts 51°
2026-05-07 17:40 40.11057 -73.62216 20763 ft 527 kts 51°
2026-05-07 17:40 40.13196 -73.58303 21017 ft 530 kts 51°
2026-05-07 17:40 40.15345 -73.54370 21284 ft 533 kts 52°
2026-05-07 17:40 40.17503 -73.50413 21598 ft 536 kts 52°
2026-05-07 17:41 40.19671 -73.46434 21852 ft 539 kts 52°
2026-05-07 17:41 40.21851 -73.42430 22099 ft 542 kts 52°
2026-05-07 17:41 40.24050 -73.38409 22343 ft 545 kts 51°
2026-05-07 17:41 40.26306 -73.34408 22585 ft 547 kts 50°
2026-05-07 17:42 40.28600 -73.30416 22837 ft 550 kts 50°
2026-05-07 17:42 40.30918 -73.26411 23054 ft 552 kts 50°
2026-05-07 17:42 40.33248 -73.22384 23377 ft 555 kts 50°
2026-05-07 17:42 40.35587 -73.18329 23536 ft 559 kts 50°
2026-05-07 17:43 40.37935 -73.14243 23730 ft 562 kts 50°
2026-05-07 17:43 40.40283 -73.10142 23962 ft 564 kts 50°
2026-05-07 17:43 40.42642 -73.06011 24195 ft 566 kts 50°
2026-05-07 17:43 40.45003 -73.01867 24395 ft 568 kts 50°
2026-05-07 17:44 40.47374 -72.97699 24610 ft 570 kts 50°
2026-05-07 17:44 40.49749 -72.93517 24830 ft 572 kts 50°
2026-05-07 17:44 40.52135 -72.89311 25028 ft 575 kts 50°
2026-05-07 17:44 40.54528 -72.85089 25225 ft 577 kts 50°
2026-05-07 17:45 40.56927 -72.80849 25431 ft 579 kts 50°
2026-05-07 17:45 40.59336 -72.76588 25623 ft 581 kts 50°
2026-05-07 17:45 40.61754 -72.72303 25843 ft 583 kts 50°
2026-05-07 17:45 40.64176 -72.68007 26029 ft 585 kts 50°
2026-05-07 17:46 40.66490 -72.63587 26273 ft 590 kts 58°
2026-05-07 17:46 40.68280 -72.58704 26355 ft 594 kts 71°
2026-05-07 17:46 40.69450 -72.53485 26601 ft 593 kts 78°
2026-05-07 17:46 40.70402 -72.48198 26797 ft 594 kts 81°
2026-05-07 17:47 40.71217 -72.42925 26980 ft 595 kts 83°
2026-05-07 17:47 40.71983 -72.37487 27174 ft 597 kts 83°
2026-05-07 17:47 40.72717 -72.32095 27360 ft 599 kts 83°
2026-05-07 17:47 40.73445 -72.26748 27545 ft 601 kts 83°
2026-05-07 17:48 40.74195 -72.21325 27730 ft 602 kts 83°
2026-05-07 17:48 40.74958 -72.15895 27948 ft 603 kts 83°
2026-05-07 17:48 40.75734 -72.10441 28111 ft 606 kts 83°
2026-05-07 17:48 40.76515 -72.04975 28300 ft 608 kts 83°
2026-05-07 17:49 40.77299 -71.99486 28547 ft 610 kts 83°
2026-05-07 17:49 40.78084 -71.93975 28636 ft 614 kts 83°
2026-05-07 17:49 40.78870 -71.88432 28772 ft 615 kts 83°
2026-05-07 17:49 40.79652 -71.82892 28884 ft 614 kts 83°
2026-05-07 17:50 40.81208 -71.71806 28882 ft 613 kts 83°
2026-05-07 17:50 40.82746 -71.60746 28880 ft 613 kts 83°
2026-05-07 17:51 40.84272 -71.49681 28873 ft 612 kts 83°
2026-05-07 17:51 40.85784 -71.38643 28869 ft 610 kts 83°
2026-05-07 17:52 40.87275 -71.27676 28879 ft 611 kts 83°
2026-05-07 17:52 40.88767 -71.16611 28867 ft 612 kts 83°
2026-05-07 17:53 40.90252 -71.05526 28871 ft 613 kts 84°
2026-05-07 17:53 40.91726 -70.94437 28868 ft 613 kts 84°
2026-05-07 17:54 40.93199 -70.83268 28853 ft 612 kts 84°
2026-05-07 17:54 40.94641 -70.72255 28859 ft 611 kts 84°
2026-05-07 17:55 40.96080 -70.61181 28875 ft 611 kts 84°
2026-05-07 17:55 40.97508 -70.50093 28850 ft 611 kts 84°
2026-05-07 17:56 40.98926 -70.39002 28856 ft 611 kts 84°
2026-05-07 17:56 41.00331 -70.27925 28853 ft 610 kts 84°
2026-05-07 17:57 41.01500 -70.18643 28825 ft 610 kts 84°
2026-05-07 17:57 41.03110 -70.05751 28850 ft 610 kts 84°
2026-05-07 17:58 41.04482 -69.94667 28851 ft 610 kts 84°
2026-05-07 17:58 41.05844 -69.83577 28831 ft 610 kts 84°
2026-05-07 17:59 41.06806 -69.78092 28848 ft 614 kts 72°
2026-05-07 17:59 41.08495 -69.72904 28849 ft 613 kts 58°
2026-05-07 17:59 41.13300 -69.63613 28848 ft 610 kts 49°
2026-05-07 18:00 41.18542 -69.54761 28857 ft 610 kts 47°
2026-05-07 18:00 41.23856 -69.45997 28845 ft 609 kts 47°
2026-05-07 18:01 41.29122 -69.37175 28835 ft 609 kts 48°
2026-05-07 18:01 41.34343 -69.28301 28858 ft 609 kts 48°
2026-05-07 18:02 41.42141 -69.14954 28839 ft 608 kts 48°
2026-05-07 18:03 41.47302 -69.06102 28837 ft 608 kts 48°
2026-05-07 18:03 41.52497 -68.97170 28838 ft 608 kts 48°
2026-05-07 18:04 41.57675 -68.88243 28835 ft 608 kts 48°
2026-05-07 18:04 41.62850 -68.79295 28835 ft 608 kts 48°
2026-05-07 18:05 41.68016 -68.70333 28825 ft 607 kts 48°
2026-05-07 18:05 41.73169 -68.61366 28826 ft 608 kts 48°
2026-05-07 18:06 41.78315 -68.52387 28810 ft 608 kts 48°
2026-05-07 18:06 41.83451 -68.43398 28826 ft 607 kts 48°
2026-05-07 18:07 41.88580 -68.34395 28824 ft 607 kts 49°
2026-05-07 18:07 41.93672 -68.25430 28851 ft 608 kts 49°
2026-05-07 18:08 41.98826 -68.16330 28801 ft 608 kts 49°
2026-05-07 18:08 42.03895 -68.07350 28812 ft 606 kts 49°
2026-05-07 18:09 42.08985 -67.98309 28818 ft 606 kts 49°
2026-05-07 18:09 42.14073 -67.89245 28813 ft 608 kts 49°
2026-05-07 18:10 42.19178 -67.80123 28810 ft 608 kts 49°
2026-05-07 18:10 42.24270 -67.70994 28819 ft 609 kts 49°
2026-05-07 18:10 42.26811 -67.66430 29009 ft 610 kts 49°
2026-05-07 18:11 42.29362 -67.61840 29248 ft 610 kts 49°
2026-05-07 18:11 42.31052 -67.58795 29435 ft 610 kts 49°
2026-05-07 18:11 42.34460 -67.52646 29708 ft 611 kts 49°
2026-05-07 18:11 42.36995 -67.48062 30029 ft 610 kts 49°
2026-05-07 18:12 42.39539 -67.43455 30194 ft 611 kts 49°
2026-05-07 18:12 42.42073 -67.38861 30399 ft 611 kts 49°
2026-05-07 18:12 42.44615 -67.34246 30625 ft 610 kts 49°
2026-05-07 18:12 42.47151 -67.29633 30828 ft 610 kts 49°
2026-05-07 18:13 42.49682 -67.25023 31029 ft 610 kts 49°
2026-05-07 18:13 42.52213 -67.20405 31180 ft 610 kts 49°
2026-05-07 18:13 42.54733 -67.15799 31474 ft 608 kts 49°
2026-05-07 18:13 42.57249 -67.11194 31690 ft 607 kts 49°
2026-05-07 18:14 42.59763 -67.06586 31862 ft 608 kts 49°
2026-05-07 18:14 42.62275 -67.01976 32030 ft 608 kts 49°
2026-05-07 18:14 42.64766 -66.97322 32238 ft 610 kts 50°
2026-05-07 18:14 42.67197 -66.92590 32383 ft 611 kts 51°
2026-05-07 18:15 42.69585 -66.87818 32579 ft 611 kts 52°
2026-05-07 18:15 42.71956 -66.83024 32749 ft 611 kts 52°
2026-05-07 18:15 42.74293 -66.78290 32928 ft 611 kts 52°
2026-05-07 18:15 42.76664 -66.73497 33125 ft 609 kts 52°
2026-05-07 18:16 42.79031 -66.68724 33365 ft 607 kts 52°
2026-05-07 18:16 42.81399 -66.63961 33515 ft 608 kts 51°
2026-05-07 18:16 42.83771 -66.59193 33656 ft 608 kts 51°
2026-05-07 18:16 42.86141 -66.54428 33796 ft 608 kts 51°
2026-05-07 18:17 42.88511 -66.49657 33925 ft 608 kts 52°
2026-05-07 18:17 42.90113 -66.46425 34055 ft 607 kts 52°
2026-05-07 18:17 42.92471 -66.41661 34204 ft 606 kts 52°
2026-05-07 18:17 42.94826 -66.36894 34357 ft 605 kts 52°
2026-05-07 18:18 42.97937 -66.30583 34556 ft 604 kts 52°
2026-05-07 18:18 43.01857 -66.22612 34780 ft 603 kts 52°
2026-05-07 18:18 43.04193 -66.17852 34935 ft 602 kts 52°
2026-05-07 18:19 43.06523 -66.13098 35050 ft 602 kts 52°
2026-05-07 18:19 43.11139 -66.03654 35306 ft 599 kts 52°
2026-05-07 18:19 43.13448 -65.98918 35457 ft 598 kts 52°
2026-05-07 18:20 43.15757 -65.94174 35558 ft 597 kts 52°
2026-05-07 18:20 43.18061 -65.89435 35671 ft 597 kts 52°
2026-05-07 18:20 43.20358 -65.84701 35778 ft 596 kts 52°
2026-05-07 18:21 43.24944 -65.75230 35949 ft 596 kts 52°
2026-05-07 18:21 43.29537 -65.65716 36054 ft 598 kts 52°
2026-05-07 18:21 43.31829 -65.60954 36161 ft 597 kts 53°
2026-05-07 18:22 43.34114 -65.56199 36261 ft 597 kts 53°
2026-05-07 18:22 43.38689 -65.46658 36334 ft 598 kts 53°
2026-05-07 18:23 43.43264 -65.37084 36366 ft 599 kts 53°
2026-05-07 18:23 43.45547 -65.32296 36513 ft 598 kts 53°
2026-05-07 18:23 43.47824 -65.27509 36595 ft 598 kts 53°
2026-05-07 18:24 43.52382 -65.17911 36663 ft 599 kts 53°
2026-05-07 18:24 43.56939 -65.08283 36749 ft 600 kts 53°
2026-05-07 18:24 43.59185 -65.03525 36867 ft 599 kts 53°
2026-05-07 18:25 43.61455 -64.98707 36946 ft 598 kts 54°
2026-05-07 18:25 43.65996 -64.89049 36994 ft 600 kts 54°
2026-05-07 18:26 43.70534 -64.79365 37082 ft 600 kts 54°
2026-05-07 18:26 43.75063 -64.69667 37211 ft 600 kts 54°
2026-05-07 18:27 43.79584 -64.59955 37216 ft 600 kts 54°
2026-05-07 18:27 43.84095 -64.50231 37316 ft 600 kts 54°
2026-05-07 18:28 43.88606 -64.40484 37373 ft 601 kts 54°
2026-05-07 18:28 43.93105 -64.30719 37442 ft 601 kts 54°
2026-05-07 18:28 43.95350 -64.25832 37595 ft 598 kts 54°
2026-05-07 18:29 43.97579 -64.20970 37880 ft 593 kts 54°
2026-05-07 18:29 43.99779 -64.16161 38155 ft 588 kts 54°
2026-05-07 18:29 44.01962 -64.11386 38418 ft 582 kts 54°
2026-05-07 18:29 44.04120 -64.06657 38624 ft 577 kts 54°
2026-05-07 18:30 44.06265 -64.01953 38714 ft 575 kts 54°
2026-05-07 18:30 44.10544 -63.92550 38697 ft 575 kts 54°
2026-05-07 18:31 44.14811 -63.83145 38723 ft 575 kts 54°
2026-05-07 18:31 44.19069 -63.73721 38720 ft 575 kts 54°
2026-05-07 18:32 44.23319 -63.64284 38727 ft 574 kts 55°
2026-05-07 18:32 44.27563 -63.54831 38721 ft 576 kts 55°
2026-05-07 18:33 44.31800 -63.45359 38718 ft 576 kts 55°
2026-05-07 18:33 44.36034 -63.35865 38710 ft 576 kts 55°
2026-05-07 18:34 44.40263 -63.26350 38723 ft 576 kts 56°
2026-05-07 18:34 44.44456 -63.16885 38686 ft 575 kts 55°
2026-05-07 18:35 44.48659 -63.07364 38724 ft 574 kts 55°
2026-05-07 18:35 44.52856 -62.97828 38746 ft 575 kts 56°
2026-05-07 18:36 44.57042 -62.88284 38741 ft 575 kts 56°
2026-05-07 18:36 44.61218 -62.78732 38741 ft 574 kts 56°
2026-05-07 18:37 44.65388 -62.69160 38756 ft 575 kts 56°
2026-05-07 18:37 44.69563 -62.59546 38746 ft 577 kts 56°
2026-05-07 18:38 44.73732 -62.49912 38748 ft 577 kts 56°
2026-05-07 18:38 44.77895 -62.40260 38743 ft 577 kts 56°
2026-05-07 18:39 44.82049 -62.30594 38749 ft 577 kts 56°
2026-05-07 18:39 44.86194 -62.20919 38750 ft 576 kts 56°
2026-05-07 18:40 44.90329 -62.11233 38748 ft 576 kts 56°
2026-05-07 18:40 44.94457 -62.01531 38747 ft 577 kts 57°
2026-05-07 18:41 44.98583 -61.91799 38747 ft 577 kts 57°
2026-05-07 18:41 45.02702 -61.82051 38747 ft 578 kts 57°
2026-05-07 18:42 45.06815 -61.72283 38750 ft 578 kts 57°
2026-05-07 18:42 45.10920 -61.62497 38750 ft 579 kts 57°
2026-05-07 18:43 45.15025 -61.52682 38749 ft 580 kts 57°
2026-05-07 18:43 45.19098 -61.42910 38753 ft 579 kts 57°
2026-05-07 18:44 45.23178 -61.33068 38754 ft 579 kts 57°
2026-05-07 18:44 45.27260 -61.23209 38755 ft 579 kts 57°
2026-05-07 18:45 45.31339 -61.13318 38787 ft 583 kts 58°
2026-05-07 18:45 45.35440 -61.03323 38761 ft 585 kts 58°
2026-05-07 18:46 45.39535 -60.93333 38751 ft 584 kts 58°
2026-05-07 18:46 45.43620 -60.83329 38752 ft 584 kts 58°
2026-05-07 18:47 45.47690 -60.73319 38755 ft 584 kts 58°
2026-05-07 18:47 45.51754 -60.63286 38764 ft 584 kts 58°
2026-05-07 18:48 45.55809 -60.53236 38765 ft 584 kts 58°
2026-05-07 18:48 45.59857 -60.43170 38774 ft 585 kts 58°
2026-05-07 18:49 45.63873 -60.33146 38777 ft 585 kts 59°
2026-05-07 18:49 45.67906 -60.23043 38781 ft 584 kts 58°
2026-05-07 18:50 45.71924 -60.12937 38786 ft 583 kts 59°
2026-05-07 18:50 45.75917 -60.02860 38785 ft 581 kts 59°
2026-05-07 18:51 45.79889 -59.92805 38786 ft 580 kts 58°
2026-05-07 18:51 45.83853 -59.82730 38802 ft 578 kts 59°
2026-05-07 18:52 45.87785 -59.72697 38794 ft 576 kts 59°
2026-05-07 18:52 45.91704 -59.62663 38792 ft 575 kts 59°
2026-05-07 18:53 45.95608 -59.52631 38787 ft 575 kts 59°
2026-05-07 18:53 45.99474 -59.42659 38804 ft 574 kts 59°
2026-05-07 18:54 46.03355 -59.32613 38804 ft 574 kts 59°
2026-05-07 18:54 46.07219 -59.22573 38807 ft 573 kts 59°
2026-05-07 18:55 46.11076 -59.12518 38823 ft 573 kts 59°
2026-05-07 18:55 46.14920 -59.02456 38834 ft 573 kts 59°
2026-05-07 18:56 46.18759 -58.92369 38835 ft 573 kts 59°
2026-05-07 18:56 46.22588 -58.82274 38846 ft 573 kts 59°
2026-05-07 18:57 46.26400 -58.72184 38842 ft 572 kts 59°
2026-05-07 18:57 46.30199 -58.62090 38845 ft 571 kts 60°
2026-05-07 18:58 46.33987 -58.51989 38846 ft 571 kts 60°
2026-05-07 18:58 46.37763 -58.41884 38856 ft 570 kts 60°
2026-05-07 18:59 46.41525 -58.31776 38856 ft 570 kts 60°
2026-05-07 18:59 46.45274 -58.21665 38857 ft 569 kts 60°
2026-05-07 19:00 46.49014 -58.11543 38865 ft 569 kts 60°
2026-05-07 19:00 46.52745 -58.01410 38875 ft 569 kts 60°
2026-05-07 19:01 46.56471 -57.91247 38870 ft 569 kts 60°
2026-05-07 19:01 46.59557 -57.82802 38868 ft 569 kts 60°
2026-05-07 19:02 46.63254 -57.72649 38881 ft 567 kts 60°
2026-05-07 19:02 46.67536 -57.60840 38888 ft 566 kts 60°
2026-05-07 19:03 46.70610 -57.52331 38889 ft 566 kts 60°
2026-05-07 19:03 46.74269 -57.42167 38895 ft 565 kts 61°
2026-05-07 19:04 46.77899 -57.32044 38893 ft 563 kts 60°
2026-05-07 19:04 46.81518 -57.21914 38901 ft 562 kts 60°
2026-05-07 19:05 46.85122 -57.11788 38898 ft 562 kts 60°
2026-05-07 19:05 46.88684 -57.01740 38918 ft 558 kts 61°
2026-05-07 19:06 46.92242 -56.91666 38920 ft 558 kts 61°
2026-05-07 19:06 46.97558 -56.76545 38927 ft 556 kts 61°
2026-05-07 19:07 47.01079 -56.66480 38937 ft 553 kts 62°